EHI
0 0 0 0 0 0 0 0 0 0 0 0 0 0 0 0 0 0 0 0 0 0 0 0 0 0 0 0 0 0 0 0 0 0 0 0 0 0 0 0 0 0 0
0 0 0 0 0 0 0 0 0 0 0 0 0 0 0 0 0 0 0 0 0 0 0 0 0 0 0 0 0 0 0 0 0 0 0 0 0 0 0 0 0 0 0
0 0 0 0 0 0 0 0 0 0 0 0 0 0 0 0 0 0 0 0 0 0 0 0 0 0 0 0 0 0 0 0 0 0 0 0 0 0 0 0 0 0 0
0 0 0 0 0 0 0 0 0 0 0 0 0 0 0 0 0 0 0 0 0 0 0 0 0 0 0 0 0 0 0 0 0 0 0 0 0 0 0 0 0 0 0
0 0 0 0 0 0 0 0 0 0 0 0 0 0 0 0 0 0 0 0 0 0 0 0 0 0 0 0 0 0 0 0 0 0 0 0 0 0 0 0 0 0 0
0 0 0 0 0 0 0 0 0 0 0 0 0 0 0 0 0 0 0 0 0 0 0 0 0 0 0 0 0 0 0 0 0 0 0 0 0 0 0 0 0 0 0
0 0 0 0 0 0 0 0 0 0 0 0 0 0 0 0 0 0 0 0 0 0 0 0 0 0 0 0 0 0 0 0 0 0 0 0 0 0 0 0 0 0 0
0 0 0 0 0 0 0 0 0 0 0 0 0 0 0 0 0 0 0 0 0 0 0 0 0 0 0 0 0 0 0 0 0 0 0 0 0 0 0 0 0 0 0
0 0 0 0 0 0 0 0 0 0 0 0 0 0 0 0 0 0 0 0 0 0 0 0 0 0 0 0 0 0 0 0 0 0 0 0 0 0 0 0 0 0 0
0 0 0 0 0 0 0 0 0 0 0 0 0 0 0 0 0 0 0 0 0 0 0 0 0 0 0 0 0 0 0 0 0 0 0 0 0 0 0 0 0 0 0
0 0 0 0 0 0 0 0 0 0 0 0 0 0 0 0 0 0 0 0 0 0 0 0 0 0 0 0 0 0 0 0 0 0 0 0 0 0 0 0 0 0 0
0 0 0 0 0 0 0 0 0 0 0 0 0 0 0 0 0 0 0 0 0 0 0 0 0 0 0 0 0 0 0 0 0 0 0 0 0 0 0 0 0 0 0
0 0 0 0 0 0 0 0 0 0 0 0 0 0 0 0 0 0 0 0 0 0 0 0 0 0 0 0 0 0 0 0 0 0 0 0 0 0 0 0 0 0 0
0 0 0 0 0 0 0 0 0 0 0 0 0 0 0 0 0 0 0 0 0 0 0 0 0 0 0 0 0 0 0 0 0 0 0 0 0 0 0 0 0 0 0
0 0 0 0 0 0 0 0 0 0 0 0 0 0 0 0 0 0 0 0 0 0 0 0 0 0 0 0 0 0 0 0 0 0 0 0 0 0 0 0 0 0 0
0 0 0 0 0 0 0 0 0 0 0 0 0 0 0 0 0 0 0 0 0 0 0 0 0 0 0 0 0 0 0 0 0 0 0 0 0 0 0 0 0 0 0
0 0 0 0 0 0 0 0 0 0 0 0 0 0 0 0 0 0 0 0 0 0 0 0 0 0 0 0 0 0 0 0 0 0 0 0 0 0 0 0 0 0 0
0 0 0 0 0 0 0 0 0 0 0 0 0 0 0 0 0 0 0 0 0 0 0 0 0 0 0 0 0 0 0 0 0 0 0 0 0 0 0 0 0 0 0
0 0 0 0 0 0 0 0 0 0 0 0 0 0 0 0 0 0 0 0 0 0 0 0 0 0 0 0 0 0 0 0 0 0 0 0 0 0 0 0 0 0 0
0 0 0 0 0 0 0 0 0 0 0 0 0 0 0 0 0 0 0 0 0 0 0 0 0 0 0 0 0 0 0 0 0 0 0 0 0 0 0 0 0 0 0
0 0 0 0 0 0 0 0 0 0 0 0 0 0 0 0 0 0 0 0 0 0 0 0 0 0 0 0 0 0 0 0 0 0 0 0 0 0 0 0 0 0 0
0 0 0 0 0 0 0 0 0 0 0 0 0 0 0 0 0 0 0 0 0 0 0 0 0 0 0 0 0 0 0 0 0 0 0 0 0 0 0 0 0 0 0
0 0 0 0 0 0 0 0 0 0 0 0 0 0 0 0 0 0 0 0 0 0 0 0 0 0 0 0 0 0 0 0 0 0 0 0 0 0 0 0 0 0 0
0 0 0 0 0 0 0 0 0 0 0 0 0 0 0 0 0 0 0 0 0 0 0 0 0 0 0 0 0 0 0 0 0 0 0 0 0 0 0 0 0 0 0
0 0 0 0 0 0 0 0 0 0 0 0 0 0 0 0 0 0 0 0 0 0 0 0 0 0 0 0 0 0 0 0 0 0 0 0 0 0 0 0 0 0 0
0 0 0 0 0 0 0 0 0 0 0 0 0 0 0 0 0 0 0 0 0 0 0 0 0 0 0 0 0 0 0 0 0 0 0 0 0 0 0 0 0 0 0
Wind_Speed
0 1 2 3 3 4 3 3 3 3 3 4 4 4 4 4 4 4 4 4 4 4 3 4 3 3 3 2 2 2 1 2 2 1 0 0 0 0 1 1 1 1 2
1 1 1 3 3 3 4 3 3 4 4 4 4 3 4 5 4 5 5 5 5 5 5 4 4 3 3 3 3 3 2 2 3 2 1 0 1 1 1 1 1 1 1
0 1 1 2 3 3 3 4 4 4 4 3 3 4 4 4 5 4 4 4 4 5 5 5 4 4 4 3 3 3 2 2 2 3 2 1 0 1 1 1 1 1 2
0 1 2 2 2 3 4 4 4 4 4 4 3 3 3 3 4 4 4 4 4 3 3 4 4 5 5 4 3 3 3 3 3 3 2 1 1 1 0 0 1 2 2
1 1 1 1 2 2 3 4 3 3 3 4 3 3 2 3 3 4 4 4 4 3 3 3 4 4 5 4 3 3 4 3 3 3 2 2 2 2 2 1 1 1 2
1 1 1 2 2 2 3 3 3 3 3 3 3 3 3 2 4 5 4 4 4 4 4 3 3 3 5 5 5 4 5 5 4 4 3 3 4 2 1 1 1 1 2
1 1 2 2 2 2 2 3 3 3 3 3 3 3 3 3 4 5 5 3 3 3 3 3 3 3 4 3 3 3 2 4 4 4 4 4 3 3 3 2 2 2 3
1 1 1 2 2 2 2 2 3 3 3 3 3 3 3 3 4 4 3 3 3 3 3 4 4 4 4 4 3 2 1 1 2 2 3 3 2 2 3 3 2 2 2
1 1 1 2 2 2 2 2 2 2 3 3 3 3 3 3 4 4 4 3 3 3 2 2 3 4 6 6 4 4 2 1 1 2 2 2 2 3 2 1 1 1 2
1 1 1 2 2 2 2 2 2 2 2 2 2 3 3 3 4 4 4 3 3 2 2 2 3 4 5 6 4 4 4 2 2 1 1 1 1 2 3 2 2 3 2
1 1 1 2 2 2 2 2 2 2 2 2 2 2 2 2 3 3 4 3 3 3 2 2 2 5 4 4 4 3 4 3 2 2 1 1 0 0 0 1 1 2 3
2 2 2 2 2 2 3 2 3 3 3 2 2 2 1 1 1 2 3 3 3 3 2 2 2 4 4 3 3 3 4 3 2 2 2 1 1 1 1 1 1 1 2
2 3 2 2 2 2 2 2 2 2 2 2 2 2 1 1 1 1 1 2 2 2 2 3 3 2 2 2 2 3 2 1 1 2 2 2 1 1 1 0 0 1 1
3 2 2 3 2 2 2 2 2 2 2 2 2 2 1 1 1 1 1 1 1 1 1 2 2 2 1 1 1 1 1 1 1 2 2 1 1 1 1 1 1 1 1
2 2 2 2 2 2 2 2 1 1 2 2 2 2 2 1 1 1 1 1 2 2 2 1 1 1 1 1 1 1 1 1 1 1 1 1 1 1 1 1 1 1 2
2 2 2 2 2 2 2 2 3 3 3 2 1 1 1 1 1 0 0 1 1 2 2 2 2 2 2 2 1 1 1 1 1 1 1 1 1 1 1 1 1 2 2
2 2 2 2 2 2 2 2 2 3 3 3 3 2 1 1 1 1 1 0 1 1 1 2 2 2 2 2 1 1 1 1 1 1 1 1 1 1 2 2 2 2 2
2 2 2 2 2 2 2 2 1 1 1 1 2 2 2 2 2 1 1 1 1 0 1 1 1 1 1 1 1 1 1 1 1 1 1 2 2 2 2 3 2 3 3
1 1 2 2 1 1 1 1 1 1 1 1 1 2 3 3 3 3 2 1 1 0 0 1 1 1 1 1 1 1 1 1 2 2 2 2 2 2 2 3 3 5 4
1 2 2 2 1 1 1 1 1 1 1 1 1 1 2 2 1 2 1 0 0 0 0 1 0 0 1 1 1 1 2 2 2 2 2 2 2 2 3 3 3 3 3
1 1 2 1 1 1 1 1 1 1 1 1 1 1 2 1 1 1 1 1 0 0 0 0 0 0 1 1 1 1 2 2 2 2 2 2 2 3 3 3 3 3 3
1 1 1 1 1 1 1 1 1 1 1 1 1 1 3 2 1 1 1 1 1 0 0 0 1 1 1 1 1 1 2 2 2 2 3 3 3 3 3 3 4 3 4
1 1 1 1 1 0 1 1 1 1 0 0 1 1 1 1 1 1 1 1 1 1 1 1 1 1 1 1 2 2 3 3 3 3 3 3 3 3 3 4 5 4 5
1 1 1 1 1 1 1 0 0 0 0 0 1 1 1 1 1 2 2 1 1 2 1 1 2 3 4 3 3 3 3 4 4 4 5 5 5 4 4 4 5 5 5
1 1 1 1 0 0 0 0 0 0 1 1 1 1 1 1 2 2 2 2 2 2 3 3 3 3 5 5 5 5 8 11 10 6 5 5 6 6 6 6 5 5 5
1 1 0 0 0 0 0 1 1 1 1 1 1 2 2 2 2 2 2 2 2 3 3 3 4 5 6 5 7 9 12 13 13 12 7 5 6 6 6 6 7 6 6
Wind_Direction
212 209 175 169 162 152 153 153 151 153 155 157 163 169 165 165 162 160 163 162 166 166 167 167 169 159 159 161 157 157 150 139 167 258 278 158 83 273 314 324 299 312 311
174 163 168 154 150 151 152 149 147 156 163 161 165 170 173 168 166 169 171 173 177 178 179 173 176 169 169 169 166 170 168 160 157 186 230 233 236 220 269 287 306 304 301
95 146 140 148 155 158 153 152 154 157 160 157 165 173 178 173 173 172 171 176 181 181 179 179 179 171 177 177 173 173 169 156 146 162 197 218 236 245 278 294 309 313 307
44 145 152 149 156 157 148 149 152 153 155 158 170 171 175 176 172 164 164 167 172 176 176 177 180 182 183 180 182 178 162 152 146 156 175 194 216 253 218 238 319 326 315
123 135 144 129 126 134 143 146 147 151 158 160 162 160 168 178 169 161 167 165 165 168 174 180 184 183 183 185 186 173 162 161 160 167 185 191 206 205 214 224 262 314 311
118 115 115 112 119 130 140 144 145 152 155 156 158 160 172 186 181 179 169 164 167 172 176 173 174 179 187 198 207 197 182 175 178 183 195 201 209 207 209 221 232 290 292
97 96 102 112 124 134 134 140 153 157 155 160 160 160 167 178 183 181 181 160 160 168 168 168 178 181 182 172 191 209 211 214 208 189 191 206 203 200 193 211 226 241 257
110 110 109 110 120 130 136 144 156 158 161 164 160 157 158 174 186 183 176 146 144 158 168 170 170 169 178 172 163 162 172 229 227 207 190 202 205 191 187 200 218 259 277
130 133 130 138 139 139 141 146 148 144 153 158 155 154 155 170 195 191 170 139 141 148 156 162 168 168 188 191 167 159 161 196 249 231 223 222 235 239 227 171 199 228 276
122 114 118 134 140 143 141 138 130 132 140 148 147 148 154 160 191 189 172 147 148 152 147 158 196 198 203 199 173 166 177 193 186 185 215 255 267 255 256 224 205 208 236
68 76 86 98 118 127 122 122 125 126 117 129 133 139 146 161 185 182 178 159 163 159 163 167 189 211 215 205 191 176 195 190 171 174 178 170 149 170 233 224 206 206 212
74 83 86 91 98 106 115 116 117 123 123 119 122 124 128 150 166 171 181 185 178 160 167 167 183 202 207 204 202 197 206 200 168 170 172 178 188 212 240 225 208 212 219
72 79 86 83 83 93 111 115 114 118 120 119 118 123 116 106 121 144 180 181 182 164 164 178 186 196 205 184 206 220 217 185 174 183 191 201 204 207 202 213 217 246 274
77 76 81 88 85 81 83 98 116 127 127 125 129 130 128 119 127 147 149 137 135 136 134 165 190 192 181 171 218 229 201 190 191 196 196 193 173 167 197 215 240 261 273
77 80 81 84 89 90 84 85 92 110 138 140 146 145 144 161 211 222 165 158 163 180 153 123 131 134 150 157 160 159 152 166 194 179 172 171 188 202 229 232 236 238 239
81 80 84 87 87 89 89 71 66 81 89 90 107 143 138 184 246 236 158 180 209 198 162 150 169 175 182 187 188 188 184 186 182 184 185 186 207 225 234 234 228 229 246
85 81 85 80 81 88 88 88 75 62 67 66 60 57 53 34 17 37 64 51 269 201 163 162 178 180 178 177 186 195 202 196 183 193 211 211 211 228 240 244 243 243 251
85 81 79 85 77 77 84 88 93 92 71 46 39 41 33 23 16 20 22 40 34 89 143 166 167 167 167 181 192 194 188 180 185 198 214 223 223 225 234 240 244 246 252
94 98 95 91 83 77 81 84 88 89 80 54 37 37 32 21 15 14 24 77 113 124 139 150 155 168 182 189 197 198 197 206 209 209 220 226 223 224 236 242 245 257 258
101 81 82 93 94 91 92 93 93 92 80 65 46 30 30 30 25 7 19 67 117 156 169 169 170 177 184 191 200 201 207 218 220 222 226 229 229 227 234 239 242 248 250
104 104 85 77 88 93 94 102 102 95 79 57 37 346 350 36 14 357 2 21 22 252 206 192 199 216 225 215 211 217 222 226 225 223 227 230 230 237 243 244 243 245 252
97 95 99 102 89 78 77 86 87 82 71 39 7 345 339 8 10 355 350 349 347 332 280 230 239 231 224 231 232 233 236 239 234 227 227 229 231 235 239 241 242 244 248
100 98 94 91 94 94 52 69 76 74 52 1 337 338 340 340 331 323 315 314 311 296 281 258 251 252 245 239 233 228 234 238 234 225 227 232 234 235 238 241 243 245 249
115 116 120 120 121 128 126 116 109 80 314 295 301 303 299 292 291 292 289 287 285 278 266 255 250 251 252 256 254 248 244 246 239 230 224 225 229 234 237 243 245 246 247
125 126 131 141 142 149 163 171 214 259 279 285 282 286 287 283 281 282 280 277 276 275 273 264 256 252 251 252 254 255 262 264 261 245 225 223 226 229 233 239 242 244 246
112 117 121 117 148 200 218 238 254 261 264 273 274 272 274 274 273 273 272 269 271 271 271 268 260 257 257 257 258 262 267 266 264 260 244 225 222 227 228 235 236 239 241